GFSMW_con_3kmhel_021.txt.gz
Helicity
74 53 65 76 81 115 129 165 146 146 144 94 87 95 82 68 67 77 77 73 88 80 89 116 116 126 133 157 113 105 108 114 114 143 124 123 46 62 116 52 108 249 199
86 80 90 86 97 118 159 122 91 90 62 69 90 56 79 81 95 89 76 85 102 139 135 157 162 192 150 128 124 142 134 121 110 159 174 141 139 94 203 261 249 122 159
80 105 107 111 131 132 120 89 74 52 65 160 127 126 122 83 77 87 90 128 156 173 162 160 154 138 125 130 139 141 172 135 161 118 196 182 218 238 153 160 152 182 181
119 120 108 147 104 74 61 74 83 134 103 81 111 93 101 128 200 166 183 127 137 123 124 130 128 134 126 127 129 141 257 139 181 158 156 200 243 254 267 178 117 89 104
144 148 190 179 139 110 114 139 147 129 136 178 169 179 206 175 189 184 154 119 135 158 153 140 153 141 119 129 169 185 179 182 165 208 203 229 215 180 216 236 172 99 65
181 211 272 231 143 150 138 155 152 175 205 258 294 302 255 245 217 162 127 191 201 162 135 143 137 123 126 123 157 195 203 187 184 186 186 184 200 175 176 159 135 94 52
201 279 266 174 138 153 140 176 187 218 242 276 297 305 338 358 352 105 183 168 153 127 128 132 122 118 123 151 216 292 150 91 166 207 153 135 101 130 96 77 86 90 59
171 201 180 163 160 138 165 191 203 244 279 312 441 410 260 202 65 197 158 140 115 114 123 111 99 92 107 157 205 154 69 114 129 136 112 97 100 84 96 91 85 95 72
172 181 163 172 173 158 167 199 228 301 353 411 291 220 110 96 109 158 125 117 105 108 109 91 81 93 137 128 118 112 82 111 185 118 124 137 100 97 108 107 96 98 101
144 166 185 194 195 169 196 238 286 372 309 260 228 76 67 73 133 116 122 117 107 87 80 87 99 104 129 118 88 95 84 100 149 110 115 127 98 119 108 85 90 89 87
133 144 192 199 206 226 252 278 342 332 239 258 97 104 90 146 112 117 124 103 85 68 78 91 109 114 104 113 90 37 53 79 83 54 120 109 107 108 119 103 90 84 80
113 173 181 199 219 269 272 306 379 343 246 197 156 109 132 138 128 110 95 96 82 86 84 92 89 90 111 136 94 66 75 73 88 160 131 109 134 130 102 103 89 104 104
144 212 235 219 234 262 300 357 386 366 254 193 133 107 138 133 106 90 94 103 103 99 90 91 91 155 139 156 106 94 98 114 105 107 124 142 112 95 97 102 110 112 118
167 208 255 221 222 264 302 365 409 332 210 100 72 129 180 117 100 98 107 108 120 106 94 98 106 108 126 121 114 95 107 99 93 116 141 98 100 108 138 102 102 121 146
180 208 244 215 214 264 333 344 367 231 118 126 136 142 133 111 100 107 107 115 139 106 107 105 95 100 94 133 154 107 94 104 112 107 76 97 150 127 113 87 91 103 111
161 164 171 181 215 275 274 275 266 224 186 144 161 106 108 106 106 121 114 110 110 127 126 117 110 120 150 225 193 132 112 105 95 80 97 87 97 125 108 64 87 73 76
128 129 133 156 216 241 239 279 215 263 204 197 127 110 97 109 113 108 106 108 126 134 122 128 165 135 242 206 156 116 85 86 89 86 84 85 91 100 124 126 84 60 53
84 93 133 196 211 225 354 217 284 281 258 271 251 107 110 103 114 106 92 111 124 123 139 130 140 128 239 212 138 87 61 83 86 85 80 76 91 156 118 86 52 43 35
73 105 147 169 215 306 241 367 358 390 356 227 117 104 109 92 92 83 101 127 119 125 115 118 140 118 203 208 142 85 76 76 73 72 64 107 79 153 95 56 48 37 28
81 104 124 167 243 372 368 456 465 423 247 253 115 110 85 78 63 90 115 116 120 97 125 125 131 150 183 211 150 96 77 78 73 65 76 143 130 103 55 49 53 47 28
114 164 223 307 337 480 459 547 612 616 243 70 66 64 74 68 87 95 94 115 110 125 149 147 120 105 133 167 153 108 76 78 75 72 77 96 118 65 35 38 55 60 44
203 313 361 404 673 597 670 631 429 198 102 89 63 49 62 91 101 86 90 100 109 120 136 159 133 119 125 143 145 110 81 79 68 68 67 67 58 34 30 32 57 39 38
357 361 534 719 720 651 581 379 304 175 74 58 36 42 71 100 96 92 86 115 104 123 142 156 139 96 91 111 177 127 95 70 71 68 56 43 40 37 40 67 55 42 43
445 538 597 619 626 551 470 408 186 74 47 10 31 70 84 95 91 89 102 94 97 125 145 142 133 83 81 117 160 123 85 61 75 61 62 46 61 58 64 50 52 50 45
572 525 605 578 584 417 327 95 55 31 23 44 57 93 99 69 84 88 108 98 80 118 124 140 122 107 109 100 127 113 100 91 112 93 55 45 48 47 41 45 49 49 48
491 484 468 459 325 82 22 20 26 40 49 71 97 81 96 97 98 100 109 96 86 85 108 122 126 110 100 109 110 78 71 88 95 73 47 38 52 51 47 41 45 52 52

GFSMW_con_3kmhel_024.txt.gz
Helicity
88 69 48 84 47 216 322 266 282 256 176 171 94 111 87 93 113 142 108 102 68 65 91 188 191 196 213 197 174 162 174 184 146 143 161 180 176 139 108 239 303 321 270
154 140 102 125 141 253 304 283 231 169 73 43 61 76 52 95 186 117 109 120 127 121 167 159 175 221 208 173 174 182 168 183 180 181 164 190 204 139 209 171 210 234 220
234 189 151 139 143 297 283 204 151 67 -3 -9 91 192 292 208 174 121 107 153 147 178 163 182 193 187 161 147 150 155 166 240 228 159 223 221 243 252 226 262 206 169 140
179 187 157 161 311 357 219 117 76 39 139 188 189 156 164 255 294 330 323 191 112 110 140 162 194 177 155 145 147 169 225 237 224 234 230 264 269 318 294 211 224 213 220
191 254 171 260 220 178 75 41 112 228 188 228 258 243 353 342 376 408 343 237 189 253 221 238 219 178 168 176 170 163 213 243 263 285 308 302 264 239 298 332 258 194 124
274 262 202 249 333 239 252 279 279 227 244 287 368 443 479 508 528 452 312 316 168 196 199 196 159 141 140 145 174 199 268 308 323 262 237 298 281 288 300 235 169 136 97
211 271 316 392 315 304 257 249 256 292 321 359 374 426 511 480 392 301 193 243 182 180 171 155 135 130 128 132 178 211 260 235 175 155 216 232 163 207 192 160 142 129 87
215 225 296 278 280 217 173 195 281 308 310 310 410 448 351 322 209 173 235 205 209 170 150 134 129 123 119 119 173 191 184 167 125 145 164 194 219 185 168 196 184 101 98
171 224 253 295 263 197 193 232 251 314 311 423 398 290 247 191 229 268 229 222 175 127 161 129 123 115 106 130 182 171 151 124 131 164 173 190 224 140 143 180 131 168 145
177 174 228 286 256 214 230 233 277 346 416 422 303 257 186 229 245 227 195 192 151 154 114 112 108 109 106 101 132 142 126 141 95 93 154 182 177 125 160 164 141 149 144
202 219 236 277 272 254 283 272 315 467 443 350 318 304 176 234 264 168 204 178 155 116 118 106 107 95 86 99 179 183 168 150 118 98 136 133 54 175 161 140 162 162 158
229 261 287 381 362 309 313 318 359 449 397 366 327 250 174 185 196 166 181 168 158 122 127 111 102 106 88 180 156 143 149 139 119 148 174 148 150 170 161 155 179 161 151
210 226 344 450 447 346 378 372 353 399 434 324 275 207 218 168 178 218 184 158 153 138 162 122 116 100 101 147 182 161 159 159 175 162 159 154 164 134 153 177 144 112 117
164 162 308 449 492 427 439 370 388 403 397 307 248 196 198 154 210 205 180 142 139 154 165 117 107 97 100 170 203 224 182 145 139 156 142 136 137 183 152 131 109 116 122
109 138 212 336 403 474 427 384 426 462 453 263 193 172 199 368 249 205 148 151 169 160 121 131 117 107 144 216 270 253 164 166 161 174 146 137 157 125 156 114 105 121 116
73 135 197 271 373 396 370 398 466 503 354 217 221 282 322 198 285 172 153 121 103 128 164 170 134 193 228 230 224 183 159 136 136 143 149 142 119 154 115 92 140 95 122
121 114 172 182 226 272 352 470 496 476 274 340 372 278 236 456 153 113 113 115 113 149 169 153 160 177 288 243 206 164 128 100 112 126 135 120 129 187 167 161 137 93 54
131 116 116 126 183 247 343 395 394 418 349 430 446 454 421 233 150 114 95 84 115 142 145 163 147 181 286 254 205 165 121 96 103 130 102 107 137 160 143 108 76 74 68
136 107 117 154 197 208 304 451 435 459 504 578 711 416 240 193 115 115 95 116 119 121 142 144 145 175 278 241 220 167 129 117 109 105 96 98 122 191 144 87 71 60 62
106 104 128 147 198 339 454 593 695 765 859 888 666 502 182 104 94 81 104 99 105 120 144 200 225 242 264 233 201 159 138 130 110 104 96 155 188 139 89 83 81 71 59
148 172 348 508 611 753 795 904 948 1151 1269 623 302 214 94 80 77 83 84 105 119 118 129 154 170 152 200 201 166 150 144 116 130 110 89 152 133 85 60 68 83 77 75
259 458 661 847 942 919 934 949 1000 624 390 338 152 59 56 74 76 119 121 116 103 106 121 181 200 189 170 232 180 154 120 124 126 96 87 100 82 49 56 64 53 52 56
544 649 706 746 764 707 591 498 451 541 211 36 35 20 14 55 103 112 114 111 101 114 130 157 195 179 143 164 217 174 143 118 118 87 77 67 46 41 68 52 89 82 82
528 514 509 491 492 565 601 330 145 58 45 7 -25 1 62 87 102 103 109 118 143 117 127 133 170 173 151 144 222 181 164 138 121 60 63 82 73 83 87 69 73 110 95
444 357 346 303 250 162 96 51 32 -6 -29 -16 24 62 88 82 85 99 103 160 152 132 113 102 134 160 173 172 188 156 162 170 140 103 111 74 68 73 66 67 84 104 102
226 154 126 91 63 40 57 31 38 37 43 54 78 94 99 99 105 104 128 130 111 118 122 120 128 146 152 165 135 122 123 143 171 138 100 79 57 70 68 67 71 100 115

GFSMW_con_3kmhel_030.txt.gz
Helicity
133 180 144 87 71 84 184 173 188 172 244 233 235 210 158 130 124 123 131 165 166 159 146 133 126 115 72 91 96 100 102 89 99 94 97 88 148 156 170 154 148 180 205
219 169 186 205 219 206 188 177 167 194 233 235 253 205 170 129 127 146 163 179 176 144 146 135 93 78 114 124 136 151 135 113 109 116 96 94 118 115 130 128 146 179 174
286 300 285 326 295 306 269 209 202 197 214 218 278 283 265 264 235 218 203 154 177 190 190 155 132 194 194 168 159 122 121 120 117 134 151 146 130 122 72 106 127 167 154
304 392 397 468 447 398 362 253 241 191 185 237 283 334 319 286 208 242 211 225 222 202 197 236 227 265 229 215 174 163 145 155 133 158 161 158 165 132 140 137 173 187 171
318 442 474 500 437 449 399 320 246 182 199 219 206 277 279 241 263 299 331 330 291 285 283 236 313 273 218 202 209 184 186 177 187 188 181 173 174 185 202 170 162 202 154
238 360 452 449 366 299 319 309 214 168 129 163 189 246 300 366 436 433 429 348 333 316 280 264 270 242 208 208 189 183 168 164 172 179 179 202 210 212 214 212 169 200 182
328 395 469 426 376 343 313 183 256 269 169 212 259 340 447 517 561 494 413 375 372 338 327 265 221 188 201 199 159 134 143 161 171 166 171 182 199 217 218 238 207 241 218
238 357 402 361 337 321 260 298 338 364 252 335 384 443 529 513 476 426 390 413 375 311 216 217 169 192 147 122 132 141 167 168 161 137 139 149 132 171 229 257 262 241 236
234 331 397 377 386 340 347 428 402 432 385 433 465 478 455 429 422 414 373 302 272 235 256 355 181 174 121 125 139 150 161 151 143 121 114 126 121 170 191 175 185 218 272
214 281 348 393 405 318 313 374 416 424 393 404 388 389 378 364 360 343 304 265 254 316 241 158 179 189 121 116 132 132 121 118 112 120 117 134 159 158 148 132 153 177 190
224 291 330 349 366 381 391 378 431 452 446 430 442 433 371 321 297 290 289 314 273 289 286 140 235 148 112 110 106 90 100 112 119 140 137 144 152 135 121 126 145 148 138
276 333 351 371 358 390 450 434 426 452 455 464 460 417 402 342 314 292 282 298 278 200 220 161 167 138 125 96 135 112 128 132 140 170 179 176 169 163 153 148 142 140 135
289 376 426 440 422 399 433 474 530 547 530 508 477 436 357 329 273 270 273 271 273 266 242 201 187 152 129 133 79 90 137 181 201 173 162 153 152 147 164 152 149 145 125
282 384 422 430 458 465 491 562 609 573 506 525 501 419 342 282 256 298 337 357 389 425 376 190 156 150 161 130 140 175 200 192 204 175 167 156 145 140 132 145 142 126 119
178 267 308 366 458 505 550 611 625 528 538 527 459 369 311 296 341 415 449 484 584 550 394 210 119 182 176 186 204 204 204 204 200 197 188 156 125 106 147 160 127 126 112
189 113 190 328 423 468 505 572 553 503 523 457 418 370 406 437 540 628 735 762 782 726 253 162 149 141 176 180 195 220 200 190 186 172 159 145 152 158 176 172 144 119 98
171 138 77 112 217 308 385 368 437 489 459 488 513 553 666 820 824 803 917 1062 528 178 149 141 99 109 147 188 203 210 208 197 183 173 154 133 149 149 148 137 125 107 98
202 225 177 73 83 166 254 391 504 561 605 686 718 823 911 1068 1097 1078 886 343 94 128 157 91 77 130 149 174 193 217 219 201 182 167 141 134 137 145 137 123 108 91 84
219 238 216 227 278 307 410 596 711 802 930 975 1046 985 890 844 829 624 154 120 183 159 79 92 107 126 145 173 189 223 225 219 176 159 139 130 148 134 123 110 88 70 77
222 224 252 300 400 445 588 783 835 1001 1120 1173 1196 1072 735 491 331 94 122 137 124 111 107 105 110 123 144 159 175 216 251 212 184 152 136 127 138 128 103 101 84 77 74
198 203 255 295 321 385 564 719 734 826 683 620 473 463 503 224 108 110 119 113 107 105 93 105 108 123 161 172 163 195 249 213 199 166 154 135 112 110 80 63 95 87 83
235 253 305 312 272 271 294 299 292 234 282 308 222 161 167 152 126 123 127 104 94 96 99 116 120 128 141 169 160 172 197 201 213 183 152 142 98 83 50 61 53 42 68
237 218 237 267 272 274 265 278 221 184 166 163 161 147 127 124 131 126 102 102 105 120 120 142 144 133 136 173 150 150 155 183 232 184 150 131 116 67 55 44 34 38 74
297 251 264 268 252 211 177 141 160 158 143 125 116 119 133 121 104 99 110 123 129 140 151 153 155 155 157 164 181 189 190 179 213 166 155 161 152 116 81 62 47 66 79
268 227 207 172 153 170 173 146 123 116 122 115 114 110 103 104 113 121 132 147 145 166 168 168 171 167 148 145 162 186 195 204 169 181 205 165 156 124 101 69 69 61 63
216 215 176 187 200 187 171 144 117 109 106 112 124 129 135 138 145 154 151 141 151 139 134 118 149 175 140 99 111 124 116 132 156 204 198 165 146 148 122 73 70 74 64

GFSMW_con_3kmhel_033.txt.gz
Helicity
57 33 31 10 2 3 61 92 129 133 204 216 205 175 187 184 187 158 120 132 166 172 176 163 152 112 111 105 56 9 22 83 21 37 76 88 115 158 158 155 126 135 150
-14 43 45 39 35 65 92 133 170 220 230 247 225 217 215 192 185 142 157 172 188 169 157 138 122 121 122 50 45 57 32 32 50 72 76 109 124 153 140 141 144 151 175
90 49 99 146 100 105 120 156 203 233 224 214 256 278 315 288 249 203 206 159 158 157 161 145 128 138 110 84 105 101 95 95 106 100 131 156 151 168 147 170 127 96 130
162 132 115 188 219 161 126 137 185 207 217 222 288 325 335 315 222 210 201 196 199 203 172 175 196 191 174 118 122 122 122 145 133 166 166 177 197 188 236 177 125 148 156
235 262 205 171 240 228 224 207 196 179 170 271 289 315 317 277 258 277 283 264 268 253 217 194 178 175 111 180 276 140 162 155 173 185 189 199 199 201 254 258 196 190 151
250 254 265 238 305 304 291 291 272 242 218 249 238 309 234 265 300 328 310 295 303 280 297 286 271 221 157 170 248 200 224 149 177 175 165 212 229 209 223 234 200 216 179
384 424 387 371 381 326 288 290 304 284 255 234 222 178 205 254 288 328 371 401 417 381 350 357 291 153 181 247 216 199 210 171 193 166 167 182 173 191 206 221 220 217 176
273 363 417 430 452 342 256 291 215 204 255 277 204 193 242 309 364 459 468 495 466 411 418 301 99 125 359 236 228 216 190 154 142 157 173 176 140 146 168 204 182 166 170
159 259 352 407 388 375 304 242 235 218 191 219 281 296 329 366 425 460 489 489 510 423 243 230 334 241 282 181 163 161 169 183 198 185 175 147 122 136 160 169 167 184 191
79 146 245 291 308 280 330 293 277 244 227 296 336 343 392 455 532 570 599 571 487 387 233 345 322 255 213 192 168 146 174 185 181 157 139 149 137 136 157 150 162 165 169
80 92 139 205 232 282 279 255 296 308 328 367 413 492 517 519 509 505 482 500 431 352 333 264 271 240 217 214 134 120 145 168 147 134 122 112 150 148 140 150 154 157 143
84 105 177 243 266 274 263 272 286 333 402 470 493 418 431 427 407 426 409 348 314 282 263 278 286 264 220 168 114 142 142 141 146 143 151 132 164 160 170 162 144 160 163
92 124 193 255 281 297 313 320 364 413 479 482 392 388 393 360 362 365 314 315 318 310 304 319 355 348 224 130 138 147 130 129 141 153 160 153 163 166 162 158 155 161 173
158 194 219 259 247 309 348 413 456 476 464 391 392 387 321 348 340 332 314 427 386 389 366 415 461 351 128 149 154 148 159 153 153 164 184 169 156 149 153 147 145 163 162
155 176 208 197 224 334 399 441 486 468 386 424 416 326 343 380 364 415 473 461 429 554 643 632 415 138 172 164 136 182 193 184 205 205 191 187 168 133 141 171 150 167 161
140 106 144 195 236 300 365 396 374 346 452 416 373 388 415 395 449 531 641 774 870 848 761 362 161 180 168 103 147 210 222 218 217 211 201 189 156 150 149 132 142 161 153
195 183 134 95 119 195 288 319 373 417 470 465 493 517 569 681 766 769 859 898 918 634 380 188 186 174 113 104 139 201 239 231 228 227 208 190 171 154 153 149 156 136 110
149 152 149 138 126 121 188 272 301 375 492 595 669 736 815 823 899 979 1102 1021 554 242 196 216 158 132 105 105 127 188 243 241 235 228 202 182 160 148 151 165 151 121 111
150 159 171 182 240 287 296 412 487 556 645 679 759 807 809 863 882 930 677 309 290 201 219 164 149 116 97 98 131 214 249 257 233 227 206 188 161 120 113 169 142 105 90
183 190 194 208 244 248 314 443 470 543 608 655 746 859 898 992 578 367 266 190 175 156 167 118 105 96 107 103 116 187 288 276 243 229 205 154 169 121 112 160 139 108 82
225 211 224 216 181 189 265 332 349 368 362 399 403 384 287 220 166 106 111 111 112 151 133 121 111 118 120 110 104 140 258 251 261 252 229 194 147 128 109 107 142 114 88
244 244 281 264 230 245 261 264 274 226 223 169 152 149 135 127 127 129 114 127 145 143 127 134 133 138 134 120 110 120 165 197 256 211 206 204 148 128 107 107 89 59 72
291 266 273 293 301 282 255 264 219 196 202 183 186 169 133 115 116 128 134 146 140 154 156 165 166 168 164 152 112 106 130 147 228 223 183 172 150 141 132 96 82 69 90
321 283 307 315 317 270 242 203 170 196 189 168 146 130 131 125 126 133 139 153 163 176 183 190 192 191 192 183 176 170 179 165 171 172 177 203 216 195 183 147 114 106 95
316 305 292 289 279 259 244 197 154 137 141 129 128 125 128 129 135 146 162 179 191 207 216 226 238 235 219 200 170 153 175 182 180 180 208 204 179 200 179 154 131 107 91
308 311 292 285 257 232 226 205 171 148 137 131 128 126 121 120 123 135 139 146 158 179 198 207 234 235 205 165 126 111 96 97 123 213 235 193 189 171 173 156 133 126 90